FW6569 Weather Reports


time (UTC)temp
C
wind
direction
speed
KPH
gust
KPH
rain 1hr
cm
rain 24hr
cm
rain mn
cm
humidity
%
barometer
mb
20220629031022 14 0.0 0.0 0.00 0.00 0.00 77 1023.4
20220629030026 15 0.0 0.0 0.00 0.00 0.00 75 1023.2
20220629025029 15 0.0 0.0 0.00 0.00 0.00 73 1023.2
20220629024033 15 0.0 0.0 0.00 0.00 0.00 72 1023.1
20220629023020 15 0.0 0.0 0.00 0.00 0.00 70 1023.0
20220629022023 15 0.0 0.0 0.00 0.00 0.00 69 1022.9
20220629021026 16 0.0 0.0 0.00 0.00 0.00 67 1022.9
20220629020022 16 0.0 0.0 0.00 0.00 0.00 64 1022.8
20220629015020 17 0.0 0.0 0.00 0.00 0.00 63 1022.7
20220629014021 18 0.0 0.0 0.00 0.00 0.00 61 1022.7
20220629013024 18 0.0 0.0 0.00 0.00 0.00 58 1022.6
20220629012028 19 0.0 0.0 0.00 0.00 0.00 57 1022.5
20220629011031 20 0.0 0.0 0.00 0.00 0.00 54 1022.6
20220629010028 21 0.0 0.0 0.00 0.00 0.00 49 1022.7
20220629005021 22 0.0 0.0 0.00 0.00 0.00 45 1022.7
20220629004025 23 0.0 0.0 0.00 0.00 0.00 44 1022.7
20220629003028 23 0.0 0.0 0.00 0.00 0.00 42 1022.6
20220629002032 25 45 0.0 1.6 0.00 0.00 0.00 41 1022.6
20220629001019 26 48 1.6 3.2 0.00 0.00 0.00 41 1022.7
20220629000032 25 79 3.2 4.8 0.00 0.00 0.00 40 1022.7
20220628235025 25 43 1.6 4.8 0.00 0.00 0.00 40 1022.6
20220628234029 26 66 1.6 3.2 0.00 0.00 0.00 40 1022.7
20220628233025 26 52 1.6 6.4 0.00 0.00 0.00 40 1022.8
20220628232020 27 338 0.0 3.2 0.00 0.00 0.00 40 1022.9
20220628231023 26 270 0.0 1.6 0.00 0.00 0.00 39 1023.0
20220628230029 27 39 3.2 6.4 0.00 0.00 0.00 40 1023.0
20220628225030 26 252 1.6 4.8 0.00 0.00 0.00 39 1022.9
20220628224033 27 24 1.6 3.2 0.00 0.00 0.00 39 1023.0
20220628223030 27 8 4.8 9.7 0.00 0.00 0.00 41 1023.0
20220628222023 27 16 4.8 6.4 0.00 0.00 0.00 40 1022.9
20220628221027 27 248 1.6 4.8 0.00 0.00 0.00 39 1023.1
20220628220022 26 356 1.6 4.8 0.00 0.00 0.00 39 1023.2
20220628215020 26 260 3.2 4.8 0.00 0.00 0.00 37 1023.4
20220628214021 27 297 3.2 4.8 0.00 0.00 0.00 37 1023.4
20220628213024 27 299 3.2 6.4 0.00 0.00 0.00 36 1023.5
20220628212027 27 237 4.8 6.4 0.00 0.00 0.00 35 1023.5
20220628211031 27 234 3.2 6.4 0.00 0.00 0.00 35 1023.7
20220628210027 27 84 4.8 8.0 0.00 0.00 0.00 35 1023.7
20220628205022 27 352 6.4 9.7 0.00 0.00 0.00 36 1023.9
20220628204025 27 346 4.8 9.7 0.00 0.00 0.00 36 1023.9
20220628203028 27 6 1.6 4.8 0.00 0.00 0.00 35 1024.0
20220628202032 27 45 8.0 11.3 0.00 0.00 0.00 37 1024.0
20220628201019 27 237 3.2 6.4 0.00 0.00 0.00 37 1024.0
20220628200022 27 232 4.8 8.0 0.00 0.00 0.00 36 1024.2
20220628195026 27 316 4.8 6.4 0.00 0.00 0.00 36 1024.5
20220628194030 26 359 6.4 9.7 0.00 0.00 0.00 36 1024.5
20220628193024 27 34 8.0 11.3 0.00 0.00 0.00 36 1024.6
20220628192021 27 49 3.2 6.4 0.00 0.00 0.00 36 1024.7
20220628191020 26 175 6.4 8.0 0.00 0.00 0.00 37 1024.9
20220628190026 26 354 4.8 8.0 0.00 0.00 0.00 38 1024.8
20220628185029 26 9 4.8 8.0 0.00 0.00 0.00 37 1024.9
20220628184031 26 274 3.2 8.0 0.00 0.00 0.00 37 1024.9
20220628183020 26 281 4.8 6.4 0.00 0.00 0.00 38 1025.1
20220628182027 26 225 3.2 6.4 0.00 0.00 0.00 38 1025.1
20220628181054 26 119 4.8 6.4 0.00 0.00 0.00 38 1025.2
20220628180031 26 179 6.4 8.0 0.00 0.00 0.00 38 1025.2
20220628175020 26 236 4.8 6.4 0.00 0.00 0.00 38 1025.5
20220628174021 25 139 3.2 6.4 0.00 0.00 0.00 38 1025.3
20220628173041 26 16 6.4 9.7 0.00 0.00 0.00 40 1025.4
20220628172028 25 1 6.4 9.7 0.00 0.00 0.00 41 1025.4
20220628171031 25 52 6.4 11.3 0.00 0.00 0.00 42 1025.5
20220628170019 25 114 6.4 8.0 0.00 0.00 0.00 42 1025.5
20220628165024 25 87 4.8 8.0 0.00 0.00 0.00 43 1025.5
20220628164022 25 115 6.4 9.7 0.00 0.00 0.00 43 1025.6
20220628163019 25 32 6.4 14.5 0.00 0.00 0.00 43 1025.6
20220628162022 24 351 3.2 6.4 0.00 0.00 0.00 43 1025.6
20220628161019 25 14 6.4 9.7 0.00 0.00 0.00 44 1025.7
20220628160030 24 32 4.8 6.4 0.00 0.00 0.00 45 1025.9
20220628155026 23 236 1.6 3.2 0.00 0.00 0.00 46 1025.8
20220628154026 24 14 6.4 9.7 0.00 0.00 0.00 46 1025.8
20220628153023 23 93 4.8 6.4 0.00 0.00 0.00 47 1025.8
20220628152021 23 8 8.0 11.3 0.00 0.00 0.00 48 1025.8
20220628151019 -17 0.0 0.0 0.00 0.00 0.00
20220628150027 -17 0.0 0.0 0.00 0.00 0.00
20220628145019 -17 0.0 0.0 0.00 0.00 0.00
20220628144033 22 8.0 8.0 0.00 0.00 0.00 54 1025.9
20220628143020 -17 0.0 0.0 0.00 0.00 0.00
20220628142024 -17 0.0 0.0 0.00 0.00 0.00
20220628141025 -17 0.0 0.0 0.00 0.00 0.00
20220628140043 20 6.4 6.4 0.00 0.00 0.00 63 1025.9
20220628135028 -17 0.0 0.0 0.00 0.00 0.00
20220628134030 -17 0.0 0.0 0.00 0.00 0.00
20220628133025 18 40 6.4 8.0 0.00 0.00 0.00 68 1025.7
20220628132029 19 21 9.7 11.3 0.00 0.00 0.00 71 1025.6
20220628131027 19 32 6.4 11.3 0.00 0.00 0.00 75 1025.6
20220628130019 18 25 4.8 8.0 0.00 0.00 0.00 78 1025.7
20220628125022 17 350 3.2 4.8 0.00 0.00 0.00 80 1025.6
20220628124020 16 23 1.6 4.8 0.00 0.00 0.00 82 1025.7
20220628123029 16 0.0 0.0 0.00 0.00 0.00 83 1025.6
20220628122034 15 0.0 0.0 0.00 0.00 0.00 84 1025.5
20220628121019 15 0.0 0.0 0.00 0.00 0.00 85 1025.5
20220628120023 14 0.0 0.0 0.00 0.00 0.00 86 1025.5
20220628115020 13 0.0 0.0 0.00 0.00 0.00 87 1025.4
20220628114025 13 0.0 0.0 0.00 0.00 0.00 88 1025.2
20220628113023 12 0.0 0.0 0.00 0.00 0.00 89 1025.2
20220628112021 11 0 1.6 3.2 0.00 0.00 0.00 87 1025.2
20220628111024 10 18 3.2 4.8 0.00 0.00 0.00 86 1025.1
20220628110021 10 0.0 0.0 0.00 0.00 0.00 86 1025.1
20220628105024 10 0.0 0.0 0.00 0.00 0.00 86 1025.0
20220628104030 10 0.0 0.0 0.00 0.00 0.00 86 1024.9
20220628103021 10 0.0 0.0 0.00 0.00 0.00 85 1024.8
20220628102024 10 7 1.6 3.2 0.00 0.00 0.00 84 1024.6
20220628101022 10 0.0 0.0 0.00 0.00 0.00 83 1024.5
20220628100020 10 0.0 0.0 0.00 0.00 0.00 83 1024.6
20220628095029 10 0.0 0.0 0.00 0.00 0.00 83 1024.6
20220628094022 11 0.0 0.0 0.00 0.00 0.00 83 1024.5
20220628093019 11 0.0 0.0 0.00 0.00 0.00 83 1024.4
20220628092030 11 9 1.6 3.2 0.00 0.00 0.00 83 1024.4
20220628091027 11 9 1.6 3.2 0.00 0.00 0.00 83 1024.4
20220628090019 10 2 3.2 3.2 0.00 0.00 0.00 82 1024.4
20220628085055 10 23 0.0 3.2 0.00 0.00 0.00 82 1024.5
20220628084021 10 0.0 0.0 0.00 0.00 0.00 82 1024.4
20220628083039 10 4 3.2 3.2 0.00 0.00 0.00 80 1024.4
20220628082035 10 0.0 0.0 0.00 0.00 0.00 80 1024.5
20220628081020 11 0.0 0.0 0.00 0.00 0.00 80 1024.5
20220628080023 11 0.0 0.0 0.00 0.00 0.00 79 1024.5
20220628075021 11 0.0 0.0 0.00 0.00 0.00 78 1024.4
20220628074026 11 0.0 0.0 0.00 0.00 0.00 77 1024.4
20220628073023 11 0.0 0.0 0.00 0.00 0.00 76 1024.4
20220628072021 12 0.0 0.0 0.00 0.00 0.00 76 1024.5
20220628071022 12 0.0 0.0 0.00 0.00 0.00 75 1024.4
20220628070023 12 0.0 0.0 0.00 0.00 0.00 74 1024.4
20220628065033 12 0.0 0.0 0.00 0.00 0.00 74 1024.4
20220628064034 12 0.0 0.0 0.00 0.00 0.00 74 1024.4
20220628063021 12 0.0 3.2 0.00 0.00 0.00 74 1024.3
20220628062026 12 0.0 0.0 0.00 0.00 0.00 74 1024.4
20220628061024 12 293 0.0 1.6 0.00 0.00 0.00 73 1024.4
20220628060022 12 0.0 0.0 0.00 0.00 0.00 72 1024.4
20220628055019 12 0.0 0.0 0.00 0.00 0.00 72 1024.4
20220628054022 12 0.0 0.0 0.00 0.00 0.00 72 1024.5
20220628053019 13 0.0 0.0 0.00 0.00 0.00 72 1024.5
20220628052023 13 0.0 0.0 0.00 0.00 0.00 71 1024.5
20220628051023 13 0.0 0.0 0.00 0.00 0.00 71 1024.4
20220628050019 13 0.0 0.0 0.00 0.00 0.00 71 1024.5
20220628045024 14 0.0 0.0 0.00 0.00 0.00 71 1024.5
20220628044028 14 0.0 0.0 0.00 0.00 0.00 71 1024.5
20220628043020 13 0.0 0.0 0.00 0.00 0.00 71 1024.4
20220628042027 13 25 0.0 3.2 0.00 0.00 0.00 71 1024.3
20220628041020 14 0.0 0.0 0.00 0.00 0.00 70 1024.3
20220628040024 14 0.0 0.0 0.00 0.00 0.00 70 1024.2
20220628035021 14 0.0 0.0 0.00 0.00 0.00 70 1024.2
20220628034026 15 0.0 0.0 0.00 0.00 0.00 70 1024.1
20220628033024 15 0.0 0.0 0.00 0.00 0.00 70 1024.0
20220628032022 15 0.0 0.0 0.00 0.00 0.00 69 1023.9